Location: *
(46.3500°N, 10.9000°E)
Time: 01:09:35
(UTC+00:00)

STARLINK-1203 - Pass Details

Date: 09 April 2020
Orbit: 559 x 560 km, 53.0° (Epoch: 30 May)

Event Time Altitude Azimuth Distance (km) Brightness Sun altitude
Rises 19:06:48 0° 299° (WNW) 2,753 9.3 -12.3°
Reaches altitude 10° 19:09:06 10° 304° (NW) 1,856 7.8 -12.6°
Maximum altitude 19:13:14 52° 22° (NNE) 700 4.1 -13.3°
Enters shadow 19:15:57 20° 92° (E) 1,326 5.0 -13.7°
